Flag for Germany Weather past 2 weeks in Tübingen, Baden-Württemberg, Germany

Now
75 °F

Passing clouds.


Feels Like: 78 °F
Forecast: 53 / 80 °F
Wind: 5 mph from Northeast

Location: Stuttgart-Echterdingen

Current Time: Jul 31, 2014 at 7:09:01 PM

Latest Report: Jul 31, 2014 at 6:20 PM


Visibility: N/A

Pressure: 29.98 "Hg

Humidity: 50%

Dew point: 55 °F

Location of TübingenLocation

Historic Weather in Tübingen — Graph

°F

Tübingen temperature yesterday

Maximum temperature yesterday: 73 °F (at 3:50 PM)
Minimum temperature yesterday: 63 °F (at 1:20 AM)
Average temperature yesterday: 66 °F

Past Weeks' High & Low Weather Summary

 TemperatureHumidityPressure
High91 °F (Jul 19, 3:50 PM)100% (Jul 20, 11:50 PM)30.21 "Hg (Jul 20, 11:50 PM)
Low57 °F (Jul 18, 5:50 AM)22% (Jul 18, 2:50 PM)29.77 "Hg (Jul 28, 6:20 PM)
Average69 °F72%29.96 "Hg
* Reported Jul 16 5:20 PM — Jul 31 5:50 PM, Tübingen, Weather by CustomWeather, © 2014

Note: Actual official high and low records may vary slightly from our data, if they occured in-between our weather recording intervals... More about our weather records

Advertising

Tübingen weather history for previous 24 hours

 ConditionsComfort  
Time TempWeatherWind HumidityBarometerVisibility
5:50 PM
Jul 31
75 °FScattered clouds.6 mph54%29.98 "HgN/A
5:20 PM75 °FScattered clouds.5 mph50%29.98 "HgN/A
4:50 PM75 °FScattered clouds.3 mph47%29.98 "HgN/A
4:20 PM75 °FScattered clouds.3 mph47%29.98 "HgN/A
3:50 PM73 °FScattered clouds.3 mph53%29.98 "HgN/A
3:20 PM75 °FScattered clouds.1 mph61%30.01 "HgN/A
2:50 PM73 °FScattered clouds.6 mph53%30.01 "HgN/A
2:20 PM72 °FScattered clouds.5 mph61%30.01 "HgN/A
1:50 PM73 °FScattered clouds.3 mph57%30.01 "HgN/A
1:20 PM73 °FScattered clouds.3 mph57%30.01 "HgN/A
12:50 PM72 °FScattered clouds.3 mph57%30.01 "HgN/A
12:20 PM72 °FScattered clouds.2 mph57%30.04 "HgN/A
11:50 AM70 °FScattered clouds.1 mph69%30.04 "HgN/A
11:20 AM70 °FPassing clouds.1 mph69%30.04 "HgN/A
10:50 AM70 °FPassing clouds.3 mph69%30.04 "HgN/A
10:20 AM68 °FPartly sunny.3 mph73%30.04 "HgN/A
9:50 AM66 °FBroken clouds.3 mph78%30.04 "HgN/A
9:20 AM66 °FBroken clouds.3 mph78%30.04 "HgN/A
8:50 AM64 °FPartly sunny.3 mph83%30.04 "HgN/A
8:20 AM63 °FPartly sunny.1 mph88%30.04 "HgN/A
7:50 AM63 °FPartly sunny.2 mph83%30.04 "HgN/A
7:20 AM63 °FBroken clouds.5 mph83%30.01 "HgN/A
6:50 AM63 °FPassing clouds.6 mph83%30.01 "HgN/A
6:20 AM63 °FPassing clouds.8 mph83%30.01 "HgN/A
5:50 AM63 °FClear.7 mph88%30.01 "Hg10 mi
5:20 AM63 °FClear.7 mph88%30.01 "Hg10 mi
4:50 AM63 °FClear.5 mph88%30.01 "Hg10 mi
4:20 AM63 °FPassing clouds.6 mph88%30.01 "HgN/A
3:50 AM64 °FPartly cloudy.6 mph88%29.98 "HgN/A
3:20 AM64 °FPassing clouds.5 mph88%29.98 "HgN/A
2:50 AM64 °FPassing clouds.7 mph83%29.98 "HgN/A
2:20 AM64 °FPassing clouds.7 mph88%29.98 "HgN/A
1:50 AM64 °FPartly cloudy.6 mph88%29.98 "HgN/A
1:20 AM64 °FPassing clouds.6 mph88%29.98 "HgN/A
12:50 AM64 °FClear.3 mph83%29.98 "Hg10 mi
12:20 AM64 °FClear.7 mph88%29.98 "Hg10 mi
11:50 PM
Jul 30
64 °FClear.9 mph88%29.98 "Hg10 mi
11:20 PM64 °FPassing clouds.9 mph88%29.98 "HgN/A
10:50 PM64 °FPassing clouds.12 mph88%29.98 "HgN/A
10:20 PM66 °FPartly cloudy.10 mph83%29.98 "HgN/A
9:50 PM66 °FSprinkles. Broken clouds.12 mph88%29.95 "Hg6 mi
9:20 PM66 °FScattered showers. Broken clouds.13 mph83%29.95 "Hg6 mi
8:50 PM66 °FSprinkles. Broken clouds.14 mph88%29.92 "Hg5 mi
8:20 PM66 °FBroken clouds.13 mph88%29.92 "HgN/A
7:50 PM66 °FBroken clouds.14 mph88%29.92 "HgN/A
7:20 PM66 °FBroken clouds.10 mph88%29.89 "HgN/A
Weather by CustomWeather, © 2014

See weather overviewHow to use our weather pages